Weather History for KVOK - January, 2014

Change the Weather History Date:

Saturday, January 4, 2014

  Actual Average Record
Temperature  
Mean Temperature 21 °F -  
Max Temperature 32 °F 24 °F 28 °F (2015)
Min Temperature 8 °F 13 °F -7 °F (2015)
Degree Days  
Heating Degree Days 44    
Moisture  
Dew Point 15 °F    
Average Humidity 71    
Maximum Humidity 87    
Minimum Humidity 63    
Precipitation  
Precipitation 0.00 in - - ()
Snow  
Snow 0.00 in - - ()
Snow Depth 7.00 in    
Sea Level Pressure  
Sea Level Pressure 29.83 in    
Wind  
Wind Speed 11 mph (West)    
Max Wind Speed 16 mph    
Max Gust Speed 25 mph    
Visibility 10 miles    
Events      
Averages and records for this station are not official NWS values.
T = Trace of Precipitation, MM = Missing Value Source: NWS Daily Summary

Daily Weather History Graph

Daily Weather History Graph

Search for Another Location

Airport or City:

Trip Planner

Search our weather history database for the weather conditions in past years. The results will help you decide how hot, cold, wet, or windy it might be!

Date:

Astronomy

Jan. 04, 2014 Rise Set
Actual Time 7:35 AM CST 4:36 PM CST
Civil Twilight 7:02 AM CST 5:09 PM CST
Nautical Twilight 6:26 AM CST 5:45 PM CST
Astronomical Twilight 5:51 AM CST 6:20 PM CST
Moon 9:32 AM CST (1/4) 9:06 PM CST (1/4)
Length of Visible Light 10h 06m
Length of Day
9h 01m
Waxing Crescent, 15% of the Moon is Illuminated
Jan 4
Waxing Crescent
Jan 7
First Quarter
Jan 15
Full
Jan 23
Last Quarter
Jan 30
New

Hourly Weather History & Observations

Time (CST) Temp. Windchill Dew Point Humidity Pressure Visibility Wind Dir Wind Speed Gust Speed Precip Events Conditions
12:58 AM 19.9 °F 7.3 °F 11.8 °F 71% 29.64 in 10.0 mi South 12.7 mph 25.3 mph -   Clear
1:58 AM 21.0 °F 10.6 °F 13.1 °F 71% 29.64 in 10.0 mi South 9.2 mph 17.3 mph -   Overcast
2:58 AM 23.2 °F 12.0 °F 14.5 °F 70% 29.62 in 10.0 mi South 11.5 mph 19.6 mph -   Overcast
3:58 AM 24.4 °F 13.0 °F 15.8 °F 70% 29.59 in 10.0 mi SSW 12.7 mph 23.0 mph -   Overcast
4:58 AM 25.9 °F 16.0 °F 17.4 °F 70% 29.61 in 10.0 mi SSW 10.4 mph - -   Overcast
5:58 AM 27.5 °F 18.0 °F 19.2 °F 71% 29.62 in 10.0 mi SW 10.4 mph 23.0 mph -   Overcast
6:58 AM 28.9 °F 19.2 °F 20.7 °F 71% 29.66 in 10.0 mi SW 11.5 mph - -   Overcast
7:18 AM 28.4 °F 18.5 °F 21.2 °F 74% 29.62 in 10.0 mi SW 11.5 mph 18.4 mph N/A   Overcast
7:48 AM 30.2 °F 22.6 °F 21.2 °F 69% 29.61 in 10.0 mi South 8.1 mph - N/A   Overcast
7:58 AM 30.2 °F 21.3 °F 21.2 °F 69% 29.68 in 10.0 mi SW 10.4 mph - N/A   Overcast
8:38 AM 32.0 °F 23.6 °F 23.0 °F 69% 29.65 in 10.0 mi SW 10.4 mph - N/A   Overcast
8:58 AM 30.2 °F 21.3 °F 24.8 °F 80% 29.71 in 10.0 mi SW 10.4 mph - N/A   Overcast
9:38 AM 32.0 °F 22.5 °F 26.6 °F 80% 29.70 in 10.0 mi WSW 12.7 mph - N/A   Overcast
9:58 AM 30.2 °F 20.8 °F 26.6 °F 86% 29.75 in 10.0 mi WSW 11.5 mph - N/A   Overcast
10:58 AM 32.0 °F 24.8 °F 28.4 °F 87% 29.78 in 10.0 mi WNW 8.1 mph - N/A   Overcast
11:58 AM 30.2 °F 18.9 °F 26.6 °F 86% 29.81 in 10.0 mi NW 16.1 mph - N/A   Overcast
12:33 PM 28.4 °F 17.0 °F 21.2 °F 74% 29.76 in 10.0 mi WNW 15.0 mph 21.9 mph N/A   Overcast
12:58 PM 28.4 °F 17.5 °F 19.4 °F 69% 29.83 in 10.0 mi NW 13.8 mph - N/A   Overcast
1:48 PM 26.6 °F 15.2 °F 17.6 °F 69% 29.82 in 10.0 mi NW 13.8 mph - N/A   Mostly Cloudy
1:58 PM 26.6 °F 14.7 °F 17.6 °F 69% 29.87 in 10.0 mi WNW 15.0 mph 21.9 mph N/A   Mostly Cloudy
2:58 PM 23.0 °F 11.1 °F 14.0 °F 68% 29.94 in 10.0 mi WNW 12.7 mph 20.7 mph N/A   Mostly Cloudy
3:58 PM 21.2 °F 10.1 °F 11.3 °F 66% 29.97 in 10.0 mi NW 10.4 mph - -   Clear
4:58 PM 18.1 °F 5.0 °F 7.9 °F 64% 30.01 in 10.0 mi NW 12.7 mph - -   Clear
5:58 PM 15.8 °F 2.1 °F 6.3 °F 66% 30.06 in 10.0 mi NW 12.7 mph 19.6 mph -   Clear
6:58 PM 14.9 °F 5.0 °F 4.5 °F 63% 30.10 in 10.0 mi NW 6.9 mph - -   Clear
7:58 PM 13.6 °F 4.6 °F 3.2 °F 63% 30.12 in 10.0 mi NW 5.8 mph - -   Clear
8:58 PM 12.4 °F -0.8 °F 2.8 °F 66% 30.12 in 10.0 mi NW 10.4 mph - -   Clear
9:58 PM 11.7 °F -1.7 °F 2.5 °F 67% 30.14 in 10.0 mi NW 10.4 mph - -   Clear
10:58 PM 10.0 °F -1.9 °F 1.9 °F 70% 30.17 in 10.0 mi NW 8.1 mph - -   Clear
11:58 PM 8.6 °F -2.6 °F 1.0 °F 71% 30.19 in 10.0 mi WNW 6.9 mph - -   Clear